Regional Weather Roundup
Issued by NWS

Home | Current Version | Previous Version | Text Only | Print | Product List | Glossary Off
Versions: 1 2 3 4 5 6 7 8 9 10 11 12 13 14 15 16 17 18 19 20 21 22 23 24 25 26 27 28 29 30 31 32 33 34 35 36 37 38 39 40 41 42 43 44 45 46 47 48 49 50

623
ASUS43 KFSD 201210
RWRSD

WEATHER ROUNDUP FOR SOUTH DAKOTA
NATIONAL WEATHER SERVICE SIOUX FALLS SD
600 AM CST TUE FEB 20 2018

NOTE: "FAIR" INDICATES FEW OR NO CLOUDS BELOW 12,000 FEET WITH NO
SIGNIFICANT WEATHER AND/OR OBSTRUCTIONS TO VISIBILITY.


SDZ001>005-009-010-012>017-201300-
NORTHWEST AND NORTH CENTRAL SOUTH DAKOTA

CITY           SKY/WX    TMP DP  RH WIND       PRES   REMARKS
BUFFALO          N/A     -6 -11  79 W7        29.95R WCI -20
FAITH            N/A      0  -2  91 NW13      30.05R WCI -18
MOBRIDGE       LGT SNOW   5  -1  76 NW12      30.05R WCI -11
$$

SDZ012>016-024>037-041>051-057-063-072>074-201300-
SOUTHWEST AND SOUTH CENTRAL SOUTH DAKOTA

CITY           SKY/WX    TMP DP  RH WIND       PRES   REMARKS
RAPID CTY ARPT FLURRIES  -2  -7  79 N13       30.01R WCI -20
PIERRE         LGT SNOW   3  -1  83 NW15      30.08R FOG     WCI -16
CUSTER         CLOUDY    -7 -12  79 CALM      29.72F
ELLSWORTH AFB  FLURRIES  -1  -5  83 N8        30.00R WCI -16
PHILIP         FLURRIES   2  -2  83 NW12      30.09R WCI -15
PINE RIDGE     CLOUDY    -4  -7  87 SW3       30.03R
SPEARFISH        N/A     -6 -13  71 W6        29.97R WCI -18
WINNER         LGT SNOW   4  -1  80 NW20      30.04R WCI -17
$$

SDZ004>011-016>023-039-040-201300-
NORTHEAST SOUTH DAKOTA

CITY           SKY/WX    TMP DP  RH WIND       PRES   REMARKS
ABERDEEN       LGT SNOW   5   1  83 N16       30.08R FOG     WCI -14
WATERTOWN      CLOUDY     4   0  83 NW13      29.93R WCI -13
BROOKINGS      LGT SNOW   7   1  78 NW13      29.93R FOG     WCI  -9
SISSETON         N/A      4   1  88 NW15      30.00R WCI -14
$$

SDZ017-020-022-023-036>040-048>070-201300-
SOUTHEAST SOUTH DAKOTA

CITY           SKY/WX    TMP DP  RH WIND       PRES   REMARKS
SIOUX FALLS    LGT SNOW   9   5  84 NW12      29.96S FOG     WCI  -6
HURON          LGT SNOW   4   0  83 NW16      30.04S FOG     WCI -15
CHAMBERLAIN    LGT SNOW   6   2  85 W16       30.07R WCI -13
MITCHELL       LGT SNOW   5   0  79 N14       30.04S WCI -12
YANKTON        FLURRIES   7   2  80 NW21      30.01R WCI -13
$$

ABBREVIATIONS USED IN REMARKS
   TC - TEMPERATURE IN CELSIUS
  WCI - WIND CHILL INDEX
   HX - HEAT INDEX
  VSB - VISIBILITY





USA.gov is the U.S. government's official web portal to all federal, state and local government web resources and services.